Location: ??????
(42.0089°N, 44.3281°E)
Time: 18:30:51
(UTC+00:00)

USA 267 - Pass Details

Date: 06 June 2022
Orbit: 1101 x 1106 km, 123.0° (Epoch: 28 June)

Event Time Altitude Azimuth Distance (km) Brightness Sun altitude
Rises 18:00:10 0° 51° (NE) 3,923 6.1 -12.9°
Reaches altitude 10° 18:03:00 10° 40° (NE) 2,965 5.6 -13.3°
Maximum altitude 18:08:20 28° 345° (NNW) 1,946 5.3 -13.9°
Drops below altitude 10° 18:13:41 10° 290° (WNW) 2,963 6.5 -14.6°
Sets 18:16:31 0° 279° (W) 3,921 7.0 -14.9°
